Hourly Data Report for June 01, 2021

MANIWAKI AIRPORT
QUEBEC
Current Station Operator: ECCC - MSC

46°16'29.000" N
75°59'31.000" W
199.70 m
7034482
71721
WMJ

Download Data

Hourly Data (June 2021)
Hourly Data Report for June 1, 2021
TIME
LST
Temp Definition
°C
Dew Point Definition
°C
Rel Hum Definition
%
Precip. Amount Definition
mm

Wind Dir Definition
10's deg

Wind Spd Definition
km/h
Visibility Definition
km
Stn Press Definition
kPa
Hmdx Definition


Wind Chill Definition


Weather Definition


00:00 14.9 2.3 43 0.0 28 7   99.49     LegendNANA
01:00 14.5 2.7 45 0.0 28 9   99.50     LegendNANA
02:00 9.2 3.6 68 0.0 4 1   99.50     LegendNANA
03:00 8.3 4.6 77 0.0 22 3   99.53     LegendNANA
04:00 10.0 4.8 70 0.0 20 3   99.54     LegendNANA
05:00 9.8 5.2 73 0.0 10 3   99.57     LegendNANA
06:00 13.6 3.8 52 0.0 25 7   99.59     LegendNANA
07:00 14.2 4.7 53 0.0 22 5   99.63     LegendNANA
08:00 16.2 5.7 50 0.0 24 9   99.63     LegendNANA
09:00 17.1 4.9 44 0.0 25 9   99.62     LegendNANA
10:00 19.7 6.7 43 0.0 24 15   99.57     LegendNANA
11:00 21.7 7.7 40 0.0 24 19   99.53     LegendNANA
12:00 21.5 6.4 38 0.0 25 17   99.50     LegendNANA
13:00 22.8 6.5 35 0.0 25 14   99.45     LegendNANA
14:00 21.7 6.1 36 0.0 25 20   99.42     LegendNANA
15:00 24.1 7.0 33 0.0 29 15   99.40     LegendNANA
16:00 24.2 5.1 29 0.0 26 15   99.39     LegendNANA
17:00 22.9 7.5 37 0.0 1 8   99.41     LegendNANA
18:00 22.2 5.8 35 0.0 31 9   99.43     LegendNANA
19:00 22.5 6.8 36 0.0 26 5   99.46     LegendNANA
20:00 15.4 8.3 63 0.0 0 1   99.49     LegendNANA
21:00 13.5 8.8 73 0.0 22 2   99.53     LegendNANA
22:00 11.9 8.0 77 0.0 22 1   99.55     LegendNANA
23:00 10.5 7.8 83 0.0 16 3   99.56     LegendNANA

Notes on Data Quality.

Legend

  • E = Estimated
  • M = Missing
  • NA = Not Available*
  • [empty] = Indicates an unobserved value
Date modified: